Location: Newark
(35.2672°N, 80.7344°W)
Time: 05:46:38
(UTC+00:00)

Transit 2A Rocket - Pass Details

Date: 26 January 2020
Orbit: 591 x 912 km, 66.7° (Epoch: 27 February)

Event Time Altitude Azimuth Distance (km) Brightness Sun altitude
Rises 18:47:46 0° 341° (NNW) 3,048 7.7 33.4°
Reaches altitude 10° 18:50:10 10° 350° (N) 2,178 7.0 33.2°
Maximum altitude 18:54:48 38° 59° (ENE) 1,130 5.8 32.8°
Drops below altitude 10° 18:59:50 10° 127° (SE) 2,369 7.8 32.4°
Sets 19:02:32 0° 135° (SE) 3,350 8.6 32.2°
